FW7253 Weather Reports


time (UTC)temp
C
wind
direction
speed
KPH
gust
KPH
rain 1hr
cm
rain 24hr
cm
rain mn
cm
humidity
%
barometer
mb
20260903075535 12 95 1.6 4.8 0.00 0.00 0.00 69 1008.0
20260903075037 12 123 3.2 4.8 0.00 0.00 0.00 70 1008.0
20260903074548 12 122 1.6 4.8 0.00 0.00 0.00 72 1008.1
20260903074036 11 115 1.6 3.2 0.00 0.00 0.00 72 1008.0
20260903073536 11 177 0.0 3.2 0.00 0.00 0.00 75 1008.0
20260903073112 10 167 0.0 0.0 0.00 0.00 0.00 75 1008.2
20260903072535 10 0 0.0 1.6 0.00 0.00 0.00 76 1008.2
20260903072036 10 0 0.0 3.2 0.00 0.00 0.00 76 1008.2
20260903071551 9 0 1.6 4.8 0.00 0.00 0.00 77 1008.2
20260903071034 9 127 1.6 4.8 0.00 0.00 0.00 77 1008.2
20260903070538 8 104 3.2 4.8 0.00 0.00 0.00 79 1008.2
20260903070048 8 129 1.6 4.8 0.00 0.00 0.00 81 1008.3
20260903065535 8 173 0.0 3.2 0.00 0.00 0.00 82 1008.4
20260903065035 8 0 1.6 4.8 0.00 0.00 0.00 82 1008.5
20260903064554 7 228 0.0 4.8 0.00 0.00 0.00 83 1008.3
20260903064034 7 0 0.0 3.2 0.00 0.00 0.00 85 1008.3
20260903063535 7 0 0.0 3.2 0.00 0.00 0.00 86 1008.3
20260903063104 6 145 0.0 1.6 0.00 0.00 0.00 87 1008.5
20260903062531 6 0 0.0 0.0 0.00 0.00 0.00 88 1008.5
20260903062035 6 0 0.0 0.0 0.00 0.00 0.00 88 1008.7
20260903061552 6 0 0.0 0.0 0.00 0.00 0.00 88 1008.6
20260903061034 6 0 0.0 0.0 0.00 0.00 0.00 88 1008.6
20260903060535 5 0 0.0 1.6 0.00 0.00 0.00 87 1008.6
20260903060049 5 0 0.0 1.6 0.00 0.00 0.00 87 1008.7
20260903055536 5 0 0.0 1.6 0.00 0.00 0.00 86 1008.7
20260903055034 5 0 0.0 3.2 0.00 0.00 0.00 86 1008.7
20260903054553 5 0 0.0 3.2 0.00 0.00 0.00 86 1008.7
20260903054037 5 213 0.0 1.6 0.00 0.00 0.00 86 1008.7
20260903053536 5 0 0.0 1.6 0.00 0.00 0.00 86 1008.8
20260903053049 5 153 0.0 1.6 0.00 0.00 0.00 87 1008.8
20260903052535 5 0 0.0 1.6 0.00 0.00 0.00 87 1008.8
20260903052035 5 0 0.0 3.2 0.00 0.00 0.00 87 1008.9
20260903051546 5 0 0.0 3.2 0.00 0.00 0.00 87 1008.8
20260903051038 4 0 0.0 3.2 0.00 0.00 0.00 88 1008.8
20260903050537 4 0 0.0 0.0 0.00 0.00 0.00 88 1008.8
20260903050055 4 0 0.0 0.0 0.00 0.00 0.00 87 1008.8
20260903045535 4 0 0.0 0.0 0.00 0.00 0.00 87 1008.8
20260903045037 5 0 0.0 1.6 0.00 0.00 0.00 88 1008.9
20260903044549 4 0 0.0 1.6 0.00 0.00 0.00 88 1008.8
20260903044037 4 0 0.0 0.0 0.00 0.00 0.00 88 1008.8
20260903043534 4 0 0.0 1.6 0.00 0.00 0.00 88 1008.8
20260903043101 4 0 0.0 3.2 0.00 0.00 0.00 88 1008.7
20260903042535 4 92 1.6 3.2 0.00 0.00 0.00 88 1008.7
20260903042035 4 0 0.0 3.2 0.00 0.00 0.00 87 1008.8
20260903041555 4 0 0.0 1.6 0.00 0.00 0.00 87 1008.9
20260903041034 4 0 0.0 3.2 0.00 0.00 0.00 86 1008.8
20260903040534 4 113 0.0 3.2 0.00 0.00 0.00 86 1009.0
20260903040052 5 103 0.0 3.2 0.00 0.00 0.00 85 1008.9
20260903035535 5 286 0.0 3.2 0.00 0.00 0.00 84 1008.7
20260903035035 5 0 0.0 1.6 0.00 0.00 0.00 83 1008.8
20260903034559 5 0 0.0 3.2 0.00 0.00 0.00 84 1008.8
20260903034035 5 97 1.6 3.2 0.00 0.00 0.00 84 1008.8
20260903033534 5 0 0.0 1.6 0.00 0.00 0.00 84 1008.8
20260903033058 5 0 0.0 3.2 0.00 0.00 0.00 84 1008.6
20260903032535 5 0 0.0 3.2 0.00 0.00 0.00 86 1008.6
20260903032037 5 0 0.0 1.6 0.00 0.00 0.00 86 1008.7
20260903031554 5 0 0.0 4.8 0.00 0.00 0.00 85 1008.7
20260903031034 5 0 0.0 4.8 0.00 0.00 0.00 85 1008.8
20260903030533 5 88 1.6 3.2 0.00 0.00 0.00 85 1008.8
20260903030103 5 0 1.6 3.2 0.00 0.00 0.00 84 1008.9
20260903025535 5 293 1.6 3.2 0.00 0.00 0.00 82 1008.8
20260903025035 5 0 0.0 1.6 0.00 0.00 0.00 82 1008.8
20260903024554 5 328 0.0 1.6 0.00 0.00 0.00 82 1008.7
20260903024034 5 0 0.0 0.0 0.00 0.00 0.00 83 1008.8
20260903023535 6 0 0.0 1.6 0.00 0.00 0.00 82 1008.8
20260903023107 6 0 0.0 1.6 0.00 0.00 0.00 83 1008.9
20260903022536 6 0 0.0 0.0 0.00 0.00 0.00 83 1008.9
20260903022038 6 0 0.0 1.6 0.00 0.00 0.00 82 1009.0
20260903021556 6 0 0.0 1.6 0.00 0.00 0.00 81 1009.0
20260903021035 6 0 0.0 1.6 0.00 0.00 0.00 81 1008.9
20260903020534 6 0 0.0 1.6 0.00 0.00 0.00 81 1008.9
20260903020054 6 0 0.0 1.6 0.00 0.00 0.00 81 1009.0
20260903015534 6 0 0.0 1.6 0.00 0.00 0.00 80 1009.1
20260903015035 6 0 0.0 1.6 0.00 0.00 0.00 80 1009.0
20260903014555 6 0 0.0 1.6 0.00 0.00 0.00 79 1009.1
20260903014038 6 0 0.0 1.6 0.00 0.00 0.00 78 1009.1
20260903013538 6 0 0.0 1.6 0.00 0.00 0.00 78 1009.0
20260903013050 7 0 0.0 0.0 0.00 0.00 0.00 77 1009.1
20260903012539 7 0 0.0 0.0 0.00 0.00 0.00 76 1009.0
20260903012034 7 0 0.0 0.0 0.00 0.00 0.00 76 1009.1
20260903011545 7 0 0.0 1.6 0.00 0.00 0.00 76 1009.0
20260903011035 7 0 0.0 1.6 0.00 0.00 0.00 76 1009.2
20260903010534 7 0 0.0 3.2 0.00 0.00 0.00 75 1009.2
20260903010051 7 0 1.6 3.2 0.00 0.00 0.00 75 1009.2
20260903005538 7 105 0.0 1.6 0.00 0.00 0.00 75 1009.1
20260903005036 7 0 0.0 1.6 0.00 0.00 0.00 75 1009.3
20260903004552 7 336 0.0 1.6 0.00 0.00 0.00 75 1009.3
20260903004036 7 0 0.0 4.8 0.00 0.00 0.00 74 1009.2
20260903003537 8 0 0.0 6.4 0.00 0.00 0.00 72 1009.2
20260903003055 8 227 1.6 6.4 0.00 0.00 0.00 72 1009.3
20260903002535 8 0 1.6 6.4 0.00 0.00 0.00 71 1009.1
20260903002035 8 0 0.0 3.2 0.00 0.00 0.00 71 1009.2
20260903001550 8 0 0.0 3.2 0.00 0.00 0.00 72 1009.3
20260903001035 8 0 0.0 3.2 0.00 0.00 0.00 70 1009.1
20260903000535 8 131 0.0 3.2 0.00 0.00 0.00 69 1009.1
20260903000057 8 0 0.0 3.2 0.00 0.00 0.00 69 1009.0
20260902235535 9 248 0.0 8.0 0.00 0.00 0.00 67 1009.1
20260902235035 9 115 1.6 11.3 0.00 0.00 0.00 66 1009.1
20260902234548 9 88 1.6 11.3 0.00 0.00 0.00 67 1008.9
20260902234034 9 319 6.4 11.3 0.00 0.00 0.00 67 1008.9
20260902233534 9 231 1.6 9.7 0.00 0.00 0.00 67 1009.0
20260902233101 8 0 1.6 6.4 0.00 0.00 0.00 69 1008.9
20260902232534 8 0 1.6 11.3 0.00 0.00 0.00 69 1008.9
20260902232035 8 295 4.8 11.3 0.00 0.00 0.00 69 1008.9
20260902231549 9 207 1.6 12.9 0.00 0.00 0.00 68 1009.0
20260902231035 10 245 6.4 12.9 0.00 0.00 0.00 65 1009.0
20260902230537 10 282 6.4 11.3 0.00 0.00 0.00 63 1009.1
20260902230104 10 250 4.8 11.3 0.00 0.00 0.00 64 1009.1
20260902225536 10 245 6.4 9.7 0.00 0.00 0.00 66 1009.1
20260902225123 9 311 3.2 8.0 0.00 0.00 0.00 67 1009.2
20260902224556 9 323 1.6 3.2 0.00 0.00 0.00 67 1009.2
20260902224034 10 283 1.6 3.2 0.00 0.00 0.00 66 1009.3
20260902223534 10 8 0.0 8.0 0.00 0.00 0.00 65 1009.3
20260902223103 10 0 0.0 8.0 0.00 0.00 0.00 63 1009.2
20260902222534 11 292 3.2 8.0 0.00 0.00 0.00 63 1009.3
20260902222034 11 82 1.6 6.4 0.00 0.00 0.00 62 1009.3
20260902221556 11 271 0.0 33.8 0.00 0.00 0.00 61 1009.3
20260902221036 11 231 4.8 33.8 0.00 0.00 0.00 61 1009.2
20260902220533 10 221 3.2 12.9 0.00 0.00 0.00 62 1009.2
20260902220054 10 203 0.0 8.0 0.00 0.00 0.00 63 1009.2
20260902215531 10 212 4.8 11.3 0.00 0.00 0.00 63 1009.1
20260902215032 10 246 4.8 11.3 0.00 0.00 0.00 62 1009.1
20260902214549 10 255 4.8 9.7 0.00 0.00 0.00 62 1009.1
20260902214032 10 324 4.8 11.3 0.00 0.00 0.00 62 1009.0
20260902213534 10 0 0.0 11.3 0.00 0.00 0.00 62 1009.1
20260902213045 10 281 6.4 11.3 0.00 0.00 0.00 63 1009.2
20260902212533 10 0 0.0 6.4 0.00 0.00 0.00 63 1009.1
20260902212033 11 0 1.6 6.4 0.00 0.00 0.00 62 1009.1
20260902211555 11 82 1.6 12.9 0.00 0.00 0.00 63 1009.0
20260902211032 11 95 3.2 12.9 0.00 0.00 0.00 63 1009.0
20260902210532 10 118 6.4 12.9 0.00 0.00 0.00 64 1009.0
20260902210048 10 1 1.6 9.7 0.00 0.00 0.00 66 1008.9
20260902205531 11 80 3.2 9.7 0.00 0.00 0.00 63 1008.8
20260902205035 11 87 0.0 14.5 0.00 0.00 0.00 61 1008.8
20260902204621 11 18 6.4 14.5 0.00 0.00 0.00 60 1008.8
20260902204034 11 309 1.6 6.4 0.00 0.00 0.00 61 1008.9
20260902203534 11 280 1.6 9.7 0.00 0.00 0.00 60 1009.1
20260902203055 11 355 0.0 9.7 0.00 0.00 0.00 62 1009.2
20260902202533 12 0 3.2 9.7 0.00 0.00 0.00 59 1009.2
20260902202032 11 0 0.0 3.2 0.00 0.00 0.00 63 1009.0
20260902201550 11 0 0.0 3.2 0.00 0.00 0.00 64 1008.8
20260902201032 11 290 0.0 3.2 0.00 0.00 0.00 62 1008.7
20260902200532 11 252 0.0 3.2 0.00 0.00 0.00 63 1008.8
20260902200046 12 108 0.0 3.2 0.00 0.00 0.00 61 1008.9
20260902195531 12 290 0.0 9.7 0.00 0.00 0.00 61 1009.0
20260902195034 12 89 1.6 9.7 0.00 0.00 0.00 59 1008.9
20260902194555 12 18 3.2 12.9 0.00 0.00 0.00 59 1008.9
20260902194032 12 343 4.8 16.1 0.00 0.00 0.00 59 1008.8
20260902193532 13 3 4.8 16.1 0.00 0.00 0.00 58 1008.9
20260902193049 13 309 3.2 17.7 0.00 0.00 0.00 57 1008.7
20260902192535 13 27 3.2 17.7 0.00 0.00 0.00 56 1008.5
20260902192035 13 321 6.4 17.7 0.00 0.00 0.00 56 1008.6
20260902191546 13 257 6.4 17.7 0.00 0.00 0.00 56 1008.5
20260902191035 13 301 8.0 22.5 0.00 0.00 0.00 55 1008.5
20260902190532 14 264 11.3 22.5 0.00 0.00 0.00 55 1008.5
20260902190100 14 285 12.9 22.5 0.00 0.00 0.00 55 1008.5
20260902185532 15 259 12.9 19.3 0.00 0.00 0.00 54 1008.5
20260902185035 15 265 8.0 20.9 0.00 0.00 0.00 54 1008.4
20260902184549 15 296 8.0 20.9 0.00 0.00 0.00 54 1008.5
20260902184034 15 326 9.7 17.7 0.00 0.00 0.00 54 1008.4
20260902183535 15 259 6.4 19.3 0.00 0.00 0.00 55 1008.4
20260902183110 15 196 6.4 19.3 0.00 0.00 0.00 56 1008.3
20260902182536 15 296 9.7 19.3 0.00 0.00 0.00 58 1008.2
20260902182034 15 223 4.8 11.3 0.00 0.00 0.00 57 1008.3
20260902181545 15 282 3.2 11.3 0.00 0.00 0.00 56 1008.2
20260902181032 15 237 4.8 11.3 0.00 0.00 0.00 56 1008.2
20260902180536 15 249 4.8 14.5 0.00 0.00 0.00 55 1008.3
20260902180050 16 252 6.4 14.5 0.00 0.00 0.00 54 1008.2
20260902175532 16 252 6.4 12.9 0.00 0.00 0.00 54 1008.2
20260902175033 16 238 4.8 12.9 0.00 0.00 0.00 54 1008.1
20260902174552 16 214 4.8 14.5 0.00 0.00 0.00 54 1008.1
20260902174034 16 212 6.4 16.1 0.00 0.00 0.00 53 1008.0
20260902173535 16 248 8.0 17.7 0.00 0.00 0.00 52 1008.0
20260902173111 16 229 9.7 17.7 0.00 0.00 0.00 51 1008.0
20260902172533 17 220 9.7 19.3 0.00 0.00 0.00 51 1008.0
20260902172034 17 266 8.0 24.1 0.00 0.00 0.00 50 1008.0
20260902171557 17 248 11.3 24.1 0.00 0.00 0.00 49 1008.1
20260902171032 17 263 11.3 24.1 0.00 0.00 0.00 49 1008.0
20260902170532 17 289 9.7 24.1 0.00 0.00 0.00 49 1008.1
20260902170052 17 279 12.9 24.1 0.00 0.00 0.00 48 1008.1
20260902165535 17 224 6.4 17.7 0.00 0.00 0.00 48 1008.1
20260902165032 17 255 9.7 20.9 0.00 0.00 0.00 48 1008.0
20260902164604 17 238 11.3 20.9 0.00 0.00 0.00 46 1008.1
20260902164034 18 231 8.0 19.3 0.00 0.00 0.00 46 1008.0
20260902163534 18 221 11.3 17.7 0.00 0.00 0.00 45 1008.0
20260902163052 18 231 4.8 14.5 0.00 0.00 0.00 45 1008.0
20260902162533 18 255 8.0 16.1 0.00 0.00 0.00 45 1007.9
20260902162034 18 243 8.0 19.3 0.00 0.00 0.00 43 1008.0
20260902161550 18 229 8.0 19.3 0.00 0.00 0.00 44 1007.9
20260902161031 18 228 9.7 19.3 0.00 0.00 0.00 43 1007.9
20260902160531 19 293 4.8 17.7 0.00 0.00 0.00 43 1007.9
20260902160047 19 259 8.0 17.7 0.00 0.00 0.00 42 1008.0
20260902155535 19 297 6.4 17.7 0.00 0.00 0.00 43 1008.0
20260902155032 19 300 8.0 17.7 0.00 0.00 0.00 43 1008.0
20260902154553 18 311 6.4 17.7 0.00 0.00 0.00 42 1007.9
20260902154034 19 289 9.7 19.3 0.00 0.00 0.00 42 1008.1
20260902153531 19 357 9.7 20.9 0.00 0.00 0.00 43 1007.9
20260902153059 19 245 12.9 24.1 0.00 0.00 0.00 42 1008.0
20260902152531 19 267 12.9 24.1 0.00 0.00 0.00 43 1008.0
20260902152032 19 269 12.9 24.1 0.00 0.00 0.00 42 1007.9
20260902151545 19 241 16.1 24.1 0.00 0.00 0.00 41 1007.9
20260902151031 20 274 6.4 30.6 0.00 0.00 0.00 42 1007.9
20260902150534 20 250 11.3 30.6 0.00 0.00 0.00 42 1008.0
20260902150055 20 237 16.1 25.7 0.00 0.00 0.00 41 1008.1
20260902145532 20 219 14.5 20.9 0.00 0.00 0.00 44 1008.0
20260902145031 20 257 9.7 22.5 0.00 0.00 0.00 43 1008.1
20260902144551 18 319 11.3 24.1 0.00 0.00 0.00 43 1008.1
20260902144031 18 214 11.3 24.1 0.00 0.00 0.00 44 1008.1
20260902143533 19 237 12.9 24.1 0.00 0.00 0.00 44 1008.1
20260902143048 19 280 9.7 27.4 0.00 0.00 0.00 43 1008.2
20260902142533 18 238 11.3 27.4 0.00 0.00 0.00 45 1008.2
20260902142032 19 246 14.5 25.7 0.00 0.00 0.00 44 1008.2
20260902141544 20 212 12.9 22.5 0.00 0.00 0.00 43 1008.1
20260902141031 19 245 9.7 24.1 0.00 0.00 0.00 46 1008.2
20260902140535 20 322 11.3 24.1 0.00 0.00 0.00 45 1008.3
20260902140053 20 291 9.7 20.9 0.00 0.00 0.00 45 1008.3
20260902135534 19 238 9.7 20.9 0.00 0.00 0.00 47 1008.2
20260902135034 19 288 8.0 16.1 0.00 0.00 0.00 48 1008.2
20260902134550 18 297 8.0 19.3 0.00 0.00 0.00 50 1008.4
20260902134032 18 251 8.0 25.7 0.00 0.00 0.00 48 1008.3
20260902133532 18 262 12.9 25.7 0.00 0.00 0.00 47 1008.5
20260902133101 19 247 11.3 25.7 0.00 0.00 0.00 47 1008.5
20260902132534 19 201 16.1 25.7 0.00 0.00 0.00 46 1008.4
20260902132032 19 289 16.1 25.7 0.00 0.00 0.00 47 1008.7
20260902131553 19 228 12.9 24.1 0.00 0.00 0.00 49 1008.6
20260902131033 19 233 9.7 29.0 0.00 0.00 0.00 48 1008.5
20260902130536 19 239 17.7 29.0 0.00 0.00 0.00 50 1008.7
20260902130049 18 258 8.0 27.4 0.00 0.00 0.00 51 1008.7
20260902125532 18 297 9.7 22.5 0.00 0.00 0.00 50 1008.5
20260902125032 19 239 14.5 24.1 0.00 0.00 0.00 52 1008.6
20260902124547 18 251 9.7 24.1 0.00 0.00 0.00 51 1008.7
20260902124034 18 236 14.5 24.1 0.00 0.00 0.00 52 1008.7
20260902123531 18 243 14.5 27.4 0.00 0.00 0.00 53 1008.6
20260902123056 18 236 17.7 27.4 0.00 0.00 0.00 51 1008.8
20260902122531 19 235 14.5 27.4 0.00 0.00 0.00 51 1008.5
20260902122033 18 244 17.7 27.4 0.00 0.00 0.00 51 1008.6
20260902121549 20 238 11.3 25.7 0.00 0.00 0.00 50 1008.6
20260902121034 18 250 9.7 19.3 0.00 0.00 0.00 54 1008.7
20260902120532 18 250 8.0 20.9 0.00 0.00 0.00 52 1008.7
20260902120053 18 240 9.7 24.1 0.00 0.00 0.00 50 1008.6
20260902115532 19 357 11.3 25.7 0.00 0.00 0.00 52 1008.6
20260902115034 18 243 14.5 35.4 0.00 0.00 0.00 49 1008.6
20260902114553 19 257 20.9 35.4 0.00 0.00 0.00 50 1008.5
20260902114034 20 237 12.9 25.7 0.00 0.00 0.00 49 1008.6
20260902113534 19 236 17.7 25.7 0.00 0.00 0.00 51 1008.7
20260902113053 18 264 9.7 29.0 0.00 0.00 0.00 52 1008.6
20260902112534 18 323 17.7 29.0 0.00 0.00 0.00 51 1008.7
20260902112031 19 229 12.9 24.1 0.00 0.00 0.00 52 1008.7
20260902111547 18 257 11.3 24.1 0.00 0.00 0.00 53 1008.8
20260902111032 18 218 9.7 32.2 0.00 0.00 0.00 53 1008.9
20260902110534 18 250 19.3 32.2 0.00 0.00 0.00 54 1008.9
20260902110050 18 218 9.7 22.5 0.00 0.00 0.00 54 1008.8
20260902105535 17 255 9.7 19.3 0.00 0.00 0.00 54 1008.9
20260902105034 17 283 6.4 24.1 0.00 0.00 0.00 55 1009.0
20260902104610 17 304 11.3 30.6 0.00 0.00 0.00 54 1009.0
20260902104036 18 252 16.1 32.2 0.00 0.00 0.00 53 1009.0
20260902103532 18 231 16.1 32.2 0.00 0.00 0.00 53 1008.9
20260902103106 18 225 12.9 32.2 0.00 0.00 0.00 54 1008.9
20260902102534 17 256 14.5 24.1 0.00 0.00 0.00 55 1009.0
20260902102031 17 248 9.7 27.4 0.00 0.00 0.00 55 1009.0
20260902101554 17 255 14.5 27.4 0.00 0.00 0.00 54 1009.0
20260902101032 17 250 14.5 24.1 0.00 0.00 0.00 56 1009.0
20260902100532 17 224 11.3 24.1 0.00 0.00 0.00 55 1009.0
20260902100044 17 308 14.5 24.1 0.00 0.00 0.00 54 1009.0
20260902095534 17 294 14.5 30.6 0.00 0.00 0.00 54 1009.0
20260902095032 17 232 16.1 30.6 0.00 0.00 0.00 55 1009.1
20260902094552 17 252 12.9 24.1 0.00 0.00 0.00 57 1009.0
20260902094031 17 323 8.0 27.4 0.00 0.00 0.00 55 1009.1
20260902093534 17 236 16.1 27.4 0.00 0.00 0.00 54 1009.0
20260902093047 17 224 16.1 27.4 0.00 0.00 0.00 55 1009.1
20260902092532 17 221 9.7 24.1 0.00 0.00 0.00 55 1009.1
20260902092034 17 268 8.0 27.4 0.00 0.00 0.00 57 1009.0
20260902091547 16 289 11.3 27.4 0.00 0.00 0.00 58 1009.1
20260902091035 17 250 14.5 22.5 0.00 0.00 0.00 56 1009.2
20260902090535 17 214 6.4 19.3 0.00 0.00 0.00 59 1009.2
20260902090051 16 206 9.7 17.7 0.00 0.00 0.00 58 1009.2
20260902085534 16 263 11.3 19.3 0.00 0.00 0.00 59 1009.2
20260902085034 16 219 6.4 29.0 0.00 0.00 0.00 60 1009.2
20260902084554 16 258 14.5 29.0 0.00 0.00 0.00 57 1009.3
20260902084032 16 219 11.3 20.9 0.00 0.00 0.00 58 1009.2
20260902083533 16 292 11.3 20.9 0.00 0.00 0.00 58 1009.1
20260902083051 16 278 9.7 17.7 0.00 0.00 0.00 58 1009.1
20260902082531 16 236 8.0 16.1 0.00 0.00 0.00 61 1009.1
20260902082031 15 252 9.7 16.1 0.00 0.00 0.00 62 1009.1
20260902081552 15 218 9.7 19.3 0.00 0.00 0.00 60 1009.1
20260902081031 15 212 9.7 19.3 0.00 0.00 0.00 62 1009.0
20260902080531 15 244 12.9 19.3 0.00 0.00 0.00 61 1009.1
20260902080050 15 229 8.0 16.1 0.00 0.00 0.00 65 1009.1